Location: Newark
(49.8969°N, 3.3422°E)
Time: 23:12:13
(UTC+00:00)

Envisat - Pass Details

Date: 08 December 2019
Orbit: 764 x 766 km, 98.1° (Epoch: 21 January)

Event Time Altitude Azimuth Distance (km) Brightness Sun altitude
Rises 18:51:28 0° 205° (SSW) 3,223 6.6 -28.8°
Reaches altitude 10° 18:54:19 10° 222° (SW) 2,302 6.0 -29.2°
Maximum altitude 18:58:05 21° 270° (W) 1,692 5.5 -29.9°
Drops below altitude 10° 19:01:51 10° 318° (NW) 2,315 5.9 -30.5°
Sets 19:04:46 0° 335° (NNW) 3,247 6.6 -30.9°
